Location: Caltech
(34.1382°N, 118.1253°W)
Time: 09:16:17
(UTC-07:00)

ALOS - Visible Passes

Search period start: 30 March 2015 00:00
Search period end: 09 April 2015 00:00
Orbit: 686 x 689 km, 97.9° (Epoch: 29 March)

Date Brightness Start Highest point End Pass type
(mag) Time Alt. Az. Time Alt. Az. Time Alt. Az.
30 Mar 2.8 21:28:57 52° N 21:28:57 52° N 21:32:30 10° NNW visible
31 Mar 3.7 20:28:50 20° ENE 20:28:50 20° ENE 20:32:10 10° NNE visible
31 Mar 4.1 22:07:24 28° WNW 22:07:24 28° WNW 22:10:13 10° NNW visible
01 Apr 2.7 21:07:17 47° NE 21:07:17 47° NE 21:11:11 10° N visible
01 Apr 5.3 22:45:51 11° WNW 22:45:51 11° WNW 22:46:23 10° WNW visible
02 Apr 4.2 20:07:10 12° ENE 20:07:40 12° ENE 20:09:33 10° NE visible
02 Apr 3.2 21:45:44 47° NW 21:45:44 47° NW 21:49:20 10° NNW visible
03 Apr 3.2 20:45:37 30° ENE 20:45:37 30° ENE 20:49:36 10° N visible
03 Apr 4.6 22:24:11 20° WNW 22:24:11 20° WNW 22:26:34 10° NW visible
04 Apr 2.4 21:24:04 67° N 21:24:04 67° N 21:28:10 10° N visible
05 Apr 3.8 20:23:56 18° ENE 20:24:24 18° ENE 20:27:39 10° NNE visible
05 Apr 3.8 22:02:30 34° WNW 22:02:30 34° WNW 22:05:58 10° NNW visible
06 Apr 2.6 21:02:23 46° ENE 21:02:23 46° ENE 21:06:47 10° N visible
06 Apr 5.0 22:40:57 13° W 22:40:57 13° W 22:42:25 10° WNW visible
07 Apr 4.3 20:02:21 10° E 20:03:21 11° ENE 20:04:38 10° NE visible
07 Apr 2.7 21:40:49 61° WNW 21:40:49 61° WNW 21:45:01 10° NNW visible
08 Apr 3.2 20:40:42 27° E 20:41:10 27° ENE 20:45:08 10° NNE visible
08 Apr 4.3 22:19:16 23° W 22:19:16 23° W 22:22:21 10° NW visible
